SCP
1 1 1 1 1 1 0 0 0 0 0 0 -0 -0 0 0 0 -0 -0 -0 -0 -0
1 2 2 1 0 1 0 0 1 0 -0 -0 0 0 0 0 0 0 -0 -0 -0 -0
1 2 2 2 1 1 0 0 0 0 0 0 0 0 0 0 0 0 0 0 -0 0
2 2 2 2 2 1 1 0 1 0 0 0 0 0 0 0 0 0 0 0 -0 0
3 2 2 1 1 1 1 1 2 0 0 1 0 0 0 0 0 0 0 0 0 0
2 2 2 1 1 1 1 0 1 1 0 1 1 1 0 0 0 0 0 0 0 0
3 2 3 2 1 1 1 0 0 0 1 1 1 1 1 1 0 0 0 0 0 0
2 2 2 2 1 1 1 2 1 1 1 0 0 0 0 0 0 0 0 0 0 0
1 1 1 1 1 1 1 1 0 0 0 0 1 0 0 0 -0 0 0 0 -0 0
0 1 1 1 1 1 1 1 0 0 0 0 0 0 0 0 0 0 0 0 0 0
0 1 0 1 0 0 1 1 1 1 1 1 0 0 0 0 0 -0 -0 -0 -0 -0
1 0 1 1 1 0 0 0 0 1 1 1 1 0 0 0 0 -0 -0 -0 -0 -0
1 1 1 1 1 1 1 0 0 0 0 0 1 1 0 0 0 0 0 -0 -0 -0
1 1 1 1 1 1 1 0 0 0 0 0 0 1 0 0 1 0 0 0 0 0
Wind_Speed_500mb
27 34 33 36 39 31 25 27 28 20 43 54 37 33 44 49 52 53 48 50 55 51
33 34 33 30 34 35 31 37 38 49 33 44 43 37 36 47 53 56 55 54 54 58
30 30 34 38 43 45 45 27 26 40 29 30 41 40 46 50 51 51 59 59 57 59
34 29 30 38 36 41 40 39 38 31 29 31 39 44 48 50 48 53 58 60 66 65
42 38 35 33 31 35 38 33 38 45 39 39 39 39 36 41 46 49 57 64 61 70
27 33 40 30 34 38 42 40 35 39 40 36 29 33 30 33 34 37 47 57 63 64
21 18 22 28 26 25 27 26 29 30 30 28 27 31 34 35 32 33 39 46 55 61
15 18 16 20 28 26 25 25 26 24 24 29 34 31 36 38 37 33 33 30 44 48
19 21 21 19 19 22 16 17 19 19 21 14 22 29 35 32 55 56 38 42 44 50
33 32 30 29 29 27 26 27 27 22 20 18 24 27 34 36 34 32 29 42 44 52
50 49 48 46 44 41 37 35 37 40 38 34 28 22 21 27 24 39 40 50 51 50
42 47 49 53 59 63 65 62 57 52 49 46 40 29 23 24 22 35 40 31 33 40
61 64 65 63 64 68 69 65 66 70 62 57 49 37 28 32 34 39 26 17 16 38
56 58 60 63 65 66 69 71 68 63 62 58 56 54 47 49 54 50 46 52 38 34
Wind_Direction_500mb
234 234 229 228 243 249 249 253 253 243 288 248 242 243 244 250 247 246 241 240 236 235
249 243 246 241 248 240 251 263 238 242 260 227 243 252 250 248 250 249 247 245 241 242
264 262 255 254 247 247 252 266 257 247 253 237 249 251 251 254 260 254 250 247 241 240
255 270 279 262 259 258 262 255 258 277 266 258 267 264 261 262 267 261 254 249 238 237
248 260 274 263 260 262 266 258 251 273 255 259 265 260 272 277 272 271 257 253 249 244
251 257 265 256 263 277 276 272 258 262 250 268 250 255 271 284 293 280 275 262 250 244
260 264 230 253 267 279 279 275 279 285 265 265 269 265 265 266 277 277 285 273 245 242
304 284 293 284 285 288 287 287 281 281 271 269 261 260 273 290 289 295 282 273 259 243
278 290 293 294 297 298 307 318 312 273 298 285 283 267 285 293 294 274 292 282 269 258
284 276 280 283 286 291 300 306 308 307 313 317 312 299 276 297 311 313 286 295 278 265
297 295 294 289 286 285 286 289 294 298 301 304 307 308 314 292 308 296 285 305 278 281
287 287 286 286 289 291 291 288 284 283 287 290 297 291 286 269 248 332 302 286 308 288
286 284 281 280 282 287 287 284 284 284 280 278 282 280 259 259 263 261 254 291 264 276
280 278 277 278 283 287 284 284 282 280 280 277 268 259 253 259 264 267 254 242 239 240
Wind_Speed_850mb
27 34 33 36 39 31 25 27 28 20 43 54 37 33 44 49 52 53 48 50 55 51
33 34 33 30 34 35 31 37 38 49 33 44 43 37 36 47 53 56 55 54 54 58
30 30 34 38 43 45 45 27 26 40 29 30 41 40 46 50 51 51 59 59 57 59
34 29 30 38 36 41 40 39 38 31 29 31 39 44 48 50 48 53 58 60 66 65
42 38 35 33 31 35 38 33 38 45 39 39 39 39 36 41 46 49 57 64 61 70
27 33 40 30 34 38 42 40 35 39 40 36 29 33 30 33 34 37 47 57 63 64
21 18 22 28 26 25 27 26 29 30 30 28 27 31 34 35 32 33 39 46 55 61
15 18 16 20 28 26 25 25 26 24 24 29 34 31 36 38 37 33 33 30 44 48
19 21 21 19 19 22 16 17 19 19 21 14 22 29 35 32 55 56 38 42 44 50
33 32 30 29 29 27 26 27 27 22 20 18 24 27 34 36 34 32 29 42 44 52
50 49 48 46 44 41 37 35 37 40 38 34 28 22 21 27 24 39 40 50 51 50
42 47 49 53 59 63 65 62 57 52 49 46 40 29 23 24 22 35 40 31 33 40
61 64 65 63 64 68 69 65 66 70 62 57 49 37 28 32 34 39 26 17 16 38
56 58 60 63 65 66 69 71 68 63 62 58 56 54 47 49 54 50 46 52 38 34
Wind_Direction_850mb
234 234 229 228 243 249 249 253 253 243 288 248 242 243 244 250 247 246 241 240 236 235
249 243 246 241 248 240 251 263 238 242 260 227 243 252 250 248 250 249 247 245 241 242
264 262 255 254 247 247 252 266 257 247 253 237 249 251 251 254 260 254 250 247 241 240
255 270 279 262 259 258 262 255 258 277 266 258 267 264 261 262 267 261 254 249 238 237
248 260 274 263 260 262 266 258 251 273 255 259 265 260 272 277 272 271 257 253 249 244
251 257 265 256 263 277 276 272 258 262 250 268 250 255 271 284 293 280 275 262 250 244
260 264 230 253 267 279 279 275 279 285 265 265 269 265 265 266 277 277 285 273 245 242
304 284 293 284 285 288 287 287 281 281 271 269 261 260 273 290 289 295 282 273 259 243
278 290 293 294 297 298 307 318 312 273 298 285 283 267 285 293 294 274 292 282 269 258
284 276 280 283 286 291 300 306 308 307 313 317 312 299 276 297 311 313 286 295 278 265
297 295 294 289 286 285 286 289 294 298 301 304 307 308 314 292 308 296 285 305 278 281
287 287 286 286 289 291 291 288 284 283 287 290 297 291 286 269 248 332 302 286 308 288
286 284 281 280 282 287 287 284 284 284 280 278 282 280 259 259 263 261 254 291 264 276
280 278 277 278 283 287 284 284 282 280 280 277 268 259 253 259 264 267 254 242 239 240